User: anonymous   Login
Location: Turtle Rock Observatory
(36.6913°N, 81.9708°W)
Time: 16:53:05
(UTC-04:00)
Language:

Lacrosse 5 rocket - Orbit

View from above orbital plane
View from above orbital plane
View from above satellite
View from above satellite

Ground track
Ground track

The orbit data is extracted from the following two-line orbital elements,

1 28647U 05016B   16267.17173049 0.00001200  00000-0  70006-4 0    06
2 28647  56.9940  19.3327 0130421 201.8919 158.1081 15.04528072    06
Epoch (UTC): 23 September 2016 04:07:17
Eccentricity: 0.0130421
inclination: 56.9940°
perigee height: 462 km
apogee height: 643 km
right ascension of ascending node: 19.3327°
argument of perigee: 201.8919°
revolutions per day: 15.04528072
mean anomaly at epoch: 158.1081°
orbit number at epoch: 0

The dashed part of the orbit path shows where the satellite is in the earth's shadow,  

DLR